Weather History for Fayetteville, AR

Change the Weather History Date:

Tuesday, January 1, 2013

  Actual Average Record
Temperature  
Mean Temperature 32 °F 35 °F  
Max Temperature 36 °F 46 °F 71 °F (2006)
Min Temperature 28 °F 25 °F 1 °F (1979)
Degree Days  
Heating Degree Days 33 30  
Month to date heating degree days 30  
Since 1 July heating degree days 1713  
Moisture  
Dew Point 32 °F    
Average Humidity 96    
Maximum Humidity 100    
Minimum Humidity 88    
Precipitation  
Precipitation 0.01 in 0.09 in 0.86 in (1999)
Month to date precipitation 0.09  
Year to date precipitation 0.09  
Sea Level Pressure  
Sea Level Pressure 30.16 in    
Wind  
Wind Speed 6 mph (NNW)    
Max Wind Speed 13 mph    
Max Gust Speed -    
Visibility 3 miles    
Events Rain , Snow    
T = Trace of Precipitation, MM = Missing Value Source: NWS Daily Summary

Daily Weather History Graph

Daily Weather History Graph

Search for Another Location

Airport:

Trip Planner

Search our weather history database for the weather conditions in past years. The results will help you decide how hot, cold, wet, or windy it might be!

Date:

Astronomy

Jan. 01, 2013 Rise Set
Actual Time 7:27 AM CST 5:13 PM CST
Civil Twilight 6:58 AM CST 5:42 PM CST
Nautical Twilight 6:26 AM CST 6:14 PM CST
Astronomical Twilight 5:55 AM CST 6:45 PM CST
Moon 9:36 PM CST (1/1) 9:48 AM CST (1/1)
Length of Visible Light 10h 43m
Length of Day
9h 46m
Waning Gibbous, 83% of the Moon is Illuminated
Jan 1
Waning Gibbous
Jan 4
Last Quarter
Jan 11
New
Jan 18
First Quarter
Jan 26
Full

Hourly Weather History & Observations

Time (CST) Temp. Windchill Dew Point Humidity Pressure Visibility Wind Dir Wind Speed Gust Speed Precip Events Conditions
12:53 AM 36.0 °F 33.3 °F 36.0 °F 100% 30.05 in 1.0 mi NW 3.5 mph - N/A   Overcast
1:53 AM 36.0 °F 30.3 °F 36.0 °F 100% 30.06 in 1.8 mi NW 6.9 mph - N/A   Overcast
2:02 AM 35.6 °F 29.2 °F 35.6 °F 100% 30.04 in 3.0 mi NNW 8.1 mph - N/A   Overcast
2:10 AM 35.6 °F 30.7 °F 35.6 °F 100% 30.05 in 5.0 mi NNW 5.8 mph - N/A   Overcast
2:53 AM 36.0 °F - 36.0 °F 100% 30.05 in 5.0 mi Calm Calm - N/A   Overcast
3:53 AM 36.0 °F 33.3 °F 36.0 °F 100% 30.05 in 4.0 mi NNE 3.5 mph - N/A   Overcast
4:24 AM 35.6 °F 32.8 °F 35.6 °F 100% 30.05 in 5.0 mi NNW 3.5 mph - N/A   Overcast
4:53 AM 36.0 °F - 36.0 °F 100% 30.08 in 5.0 mi Calm Calm - N/A   Overcast
5:53 AM 36.0 °F 31.1 °F 36.0 °F 100% 30.09 in 5.0 mi NNW 5.8 mph - N/A   Overcast
6:53 AM 36.0 °F 30.3 °F 35.1 °F 97% 30.12 in 2.5 mi NNW 6.9 mph - N/A   Overcast
7:53 AM 36.0 °F 31.1 °F 35.1 °F 97% 30.08 in 2.5 mi North 5.8 mph - N/A   Overcast
8:53 AM 36.0 °F 31.1 °F 35.1 °F 97% 30.14 in 1.5 mi NNW 5.8 mph - N/A   Overcast
9:53 AM 35.1 °F 29.3 °F 34.0 °F 96% 30.17 in 1.5 mi NNW 6.9 mph - 0.01 in Rain Light Rain
10:53 AM 35.1 °F 31.0 °F 34.0 °F 96% 30.18 in 2.0 mi North 4.6 mph - 0.00 in   Overcast
11:53 AM 35.1 °F 30.1 °F 34.0 °F 96% 30.17 in 2.0 mi NNW 5.8 mph - N/A   Overcast
12:01 PM 35.6 °F 30.7 °F 33.8 °F 93% 30.15 in 3.0 mi North 5.8 mph - N/A   Overcast
12:18 PM 35.6 °F 30.7 °F 33.8 °F 93% 30.14 in 2.5 mi North 5.8 mph - N/A   Overcast
12:29 PM 33.8 °F 26.4 °F 33.8 °F 100% 30.14 in 1.0 mi NNW 9.2 mph - N/A   Overcast
12:53 PM 33.1 °F 26.1 °F 33.1 °F 100% 30.17 in 1.0 mi NNW 8.1 mph - N/A   Overcast
1:08 PM 33.8 °F 25.8 °F 32.0 °F 93% 30.14 in 0.8 mi NNW 10.4 mph - N/A   Overcast
1:21 PM 33.8 °F 25.3 °F 33.8 °F 100% 30.15 in 1.0 mi NNW 11.5 mph - N/A   Overcast
1:53 PM 32.0 °F 23.0 °F 32.0 °F 100% 30.18 in 2.5 mi NNW 11.5 mph - N/A   Overcast
2:05 PM 32.0 °F 24.2 °F 32.0 °F 100% 30.15 in 3.0 mi NW 9.2 mph - N/A   Overcast
2:21 PM 32.0 °F 24.2 °F 32.0 °F 100% 30.16 in 2.5 mi NNW 9.2 mph - N/A   Overcast
2:35 PM 32.0 °F 24.2 °F 32.0 °F 100% 30.16 in 3.0 mi NNW 9.2 mph - N/A   Overcast
2:53 PM 32.0 °F 23.6 °F 30.9 °F 96% 30.19 in 3.0 mi NNW 10.4 mph - N/A   Overcast
3:00 PM 32.0 °F 23.6 °F 30.2 °F 93% 30.17 in 2.5 mi NNW 10.4 mph - N/A   Overcast
3:21 PM 30.2 °F 20.2 °F 30.2 °F 100% 30.17 in 1.8 mi NNW 12.7 mph - N/A   Overcast
3:53 PM 30.0 °F 22.4 °F 28.9 °F 96% 30.21 in 2.0 mi NNW 8.1 mph - N/A   Overcast
4:18 PM 30.2 °F 24.3 °F 28.4 °F 93% 30.19 in 1.5 mi NNW 5.8 mph - 0.00 in Snow Light Snow
4:38 PM 30.2 °F 23.4 °F 28.4 °F 93% 30.20 in 2.5 mi NNW 6.9 mph - 0.00 in   Overcast
4:53 PM 30.0 °F 25.2 °F 28.9 °F 96% 30.22 in 2.0 mi North 4.6 mph - 0.00 in Snow Light Snow
5:53 PM 30.0 °F - 28.0 °F 92% 30.22 in 2.0 mi Calm Calm - 0.00 in   Overcast
6:00 PM 30.2 °F 26.7 °F 28.4 °F 93% 30.20 in 6.0 mi North 3.5 mph - N/A   Overcast
6:24 PM 30.2 °F - 28.4 °F 93% 30.20 in 6.0 mi Calm Calm - N/A   Overcast
6:53 PM 30.0 °F 25.2 °F 28.0 °F 92% 30.23 in 6.0 mi NNW 4.6 mph - N/A   Overcast
7:49 PM 30.2 °F 23.4 °F 28.4 °F 93% 30.23 in 5.0 mi NNW 6.9 mph - N/A   Overcast
7:53 PM 30.0 °F 23.2 °F 28.0 °F 92% 30.25 in 5.0 mi NNW 6.9 mph - N/A   Overcast
8:14 PM 30.2 °F 23.4 °F 28.4 °F 93% 30.23 in 6.0 mi NNW 6.9 mph - N/A   Overcast
8:53 PM 28.9 °F 21.9 °F 27.0 °F 92% 30.23 in 6.0 mi North 6.9 mph - N/A   Overcast
9:53 PM 28.9 °F 21.1 °F 27.0 °F 92% 30.24 in 6.0 mi NNW 8.1 mph - N/A   Overcast
10:53 PM 28.9 °F 21.9 °F 26.1 °F 89% 30.25 in 7.0 mi North 6.9 mph - N/A   Overcast
11:53 PM 28.0 °F 24.2 °F 25.0 °F 88% 30.25 in 7.0 mi ENE 3.5 mph - N/A   Overcast